Weather Roundup
Issued by NWS Chicago, IL

Home | Current Version | Previous Version | Graphics & Text | Print | Product List | Glossary On
Versions: 1 2 3 4 5 6 7 8 9 10 11 12 13 14 15 16 17 18 19 20 21 22 23 24 25 26 27 28 29 30 31 32 33 34 35 36 37 38 39 40 41 42 43 44 45 46 47 48 49 50
000
NZUS59 KLOT 241008
HRRLOT

CHICAGO AREA WEATHER ROUNDUP
NATIONAL WEATHER SERVICE CHICAGO/ROMEOVILLE IL
400 AM CST FRI FEB 24 2017

NOTE: "FAIR" INDICATES FEW OR NO CLOUDS BELOW 12,000 FEET WITH NO
SIGNIFICANT WEATHER AND/OR OBSTRUCTIONS TO VISIBILITY.

* THESE STATIONS ARE NOT UNDER NWS QUALITY CONTROL. THEY ALSO MAY NOT
  REPORT WEATHER SUCH AS PRECIPITATION OR FOG.

ILZ005-006-012>014-019>023-241100-
NORTHEAST ILLINOIS

CITY           SKY/WX    TMP DP  RH WIND       PRES   REMARKS
OHARE          CLOUDY    40  38  93 NE12      29.53F
MIDWAY         CLOUDY    41  39  93 NE8       29.52F FOG
AURORA         CLOUDY    40  38  93 NE14      29.51F
LANSING*       CLOUDY    40  40 100 CALM      29.53S FOG
JOLIET*        CLOUDY    43  42  98 NE8       29.50F FOG
WAUKEGAN       CLOUDY    37  36  96 NE17G28   29.55F FOG
DUPAGE AIRPORT LGT RAIN  39  36  89 NE15      29.52F
WHEELING       CLOUDY    38  36  92 NE13      29.55F
KANKAKEE*      CLOUDY    58  54  86 S14G20    29.49F
MORRIS*        CLOUDY    42  41  95 NE6       29.47F FOG
LEWIS AIRPORT* CLOUDY    40  40 100 NE9       29.51F FOG
NORTHERLY ISL    N/A     39  38  96 NW10        N/A
$$

WIZ051-052-058>065-066-070>072-241100-
SOUTHEAST WISCONSIN

CITY           SKY/WX    TMP DP  RH WIND       PRES   REMARKS
MILWAUKEE      TSTM      37  33  85 NE24G35   29.60F
KENOSHA*       LGT RAIN  37  34  89 NE24G37   29.56F FOG
RACINE*        LGT RAIN  36  34  92 NE24G30   29.60F
WAUKESHA       RAIN      32  32 100 NE17G29   29.61S WCI  21
WEST BEND      LGT RAIN  32  32 100 NE22G29   29.65S WCI  19
$$

INZ001>003-010>013-019-020-241100-
NORTHWEST INDIANA

CITY           SKY/WX    TMP DP  RH WIND       PRES   REMARKS
GARY*          NOT AVBL
MICHIGAN CITY* NOT AVBL
RENSSELAER*    NOT AVBL
VALPARAISO     CLOUDY    57  54  89 S7        29.53F
$$

LMZ740>746-241100-
SOUTHERN LAKE MICHIGAN

STATION/POSITION TIME  SKY/WX   TEMP WIND        PRES    VSBY
                                AIR  DIR/SP/G
                 (UTC)          (F)  (DEG/KT/KT) (MB)    (MI)
HARRISON CRIB    0940            39   20/  8/  9   N/A
BURNHAM HARBOR   1000            39   10/  8/ 11   N/A
CALUMET HARBOR   0942            38  340/  5/  7  999.5F
BURNS HARBOR     0940            41  100/  5/  7 1000.7F
MICHIGAN CITY    0940            40   50/  2/  2   N/A
$$

ABBREVIATIONS USED IN REMARKS
   TC - TEMPERATURE IN CELSIUS
  WCI - WIND CHILL INDEX
   HX - HEAT INDEX
  VSB - VISIBILITY
$$



USA.gov is the U.S. government's official web portal to all federal, state and local government web resources and services.